Location: *
(47.7167°N, 1.7333°W)
Time: 06:00:45
(UTC+00:00)

Cosmos 1892 - Pass Details

Date: 09 April 2020
Orbit: 503 x 526 km, 82.5° (Epoch: 29 May)

Event Time Altitude Azimuth Distance (km) Brightness Sun altitude
Rises 21:30:36 0° 343° (NNW) 2,674 7.3 -24.3°
Reaches altitude 10° 21:32:51 10° 336° (NNW) 1,780 6.4 -24.6°
Maximum altitude 21:36:29 39° 267° (W) 809 3.9 -25.0°
Enters shadow 21:36:44 38° 257° (WSW) 816 3.8 -25.0°
